Flag for U.S.A. Weather past 2 weeks in Louisville, Kentucky, U.S.A.

Now
74 °F

Mostly cloudy.


Feels Like: 73 °F
Forecast: 69 / 78 °F
Wind: 8 mph from South

Location: Standiford Field

Current Time: Jul 2, 2015 at 12:53:37 PM

Latest Report: Jul 2, 2015 at 11:56 AM


Visibility: 10 mi

Pressure: 29.87 "Hg

Humidity: 85%

Dew point: 69 °F

Location of LouisvilleLocation

Historic Weather in Louisville — Graph

°F

Louisville temperature yesterday

Maximum temperature yesterday: 80 °F (at 5:56 PM)
Minimum temperature yesterday: 68 °F (at 3:56 AM)
Average temperature yesterday: 74 °F

Past Weeks' High & Low Weather Summary

 TemperatureHumidityPressure
High91 °F (Jun 18, 2:56 PM)97% (Jun 20, 5:56 AM)30.15 "Hg (Jun 20, 5:56 AM)
Low60 °F (Jun 28, 5:56 AM)31% (Jun 24, 3:56 PM)29.64 "Hg (Jun 20, 8:56 AM)
Average77 °F71%29.93 "Hg
* Reported Jun 17 10:56 AM — Jul 2 10:56 AM, Louisville, Weather by CustomWeather, © 2015

Note: Actual official high and low records may vary slightly from our data, if they occured in-between our weather recording intervals... More about our weather records

Advertising

Louisville weather history for previous 24 hours

 ConditionsComfort  
Time TempWeatherWind HumidityBarometerVisibility
10:56 AM
Thu, Jul 2
73 °FMostly cloudy.7 mph88%29.87 "Hg10 mi
10:00 AM72 °FLight rain. Mostly cloudy.5 mph91%29.89 "Hg8 mi
8:56 AM71 °FCloudy.5 mph90%29.86 "Hg7 mi
7:56 AM70 °FLight rain. Fog.6 mph93%29.85 "Hg3 mi
6:56 AM71 °FOvercast.6 mph87%29.85 "Hg8 mi
5:56 AM72 °FMostly cloudy.9 mph87%29.86 "Hg10 mi
4:56 AM73 °FMostly cloudy.8 mph88%29.86 "Hg9 mi
3:56 AM73 °FLight rain. Mostly cloudy.No wind90%29.84 "Hg8 mi
2:56 AM73 °FLight rain. Mostly cloudy.5 mph90%29.88 "Hg3 mi
1:56 AM73 °FLight rain. Mostly cloudy.3 mph90%29.89 "Hg3 mi
12:56 AM73 °FThunderstorms. Overcast.10 mph90%29.91 "Hg4 mi
12:04 AM74 °FThunderstorms. Partly cloudy.3 mph85%29.93 "Hg8 mi
11:56 PM
Wed, Jul 1
74 °FPassing clouds.5 mph85%29.92 "Hg8 mi
10:56 PM75 °FMostly cloudy.No wind79%29.91 "Hg8 mi
9:56 PM75 °FScattered clouds.6 mph82%29.89 "Hg8 mi
8:56 PM76 °FBroken clouds.8 mph74%29.88 "Hg8 mi
7:56 PM77 °FMostly cloudy.3 mph69%29.88 "Hg8 mi
6:56 PM79 °FPartly sunny.No wind65%29.87 "Hg8 mi
5:56 PM80 °FBroken clouds.5 mph67%29.87 "Hg7 mi
4:56 PM77 °FCloudy.No wind77%29.88 "Hg7 mi
3:56 PM75 °FMostly cloudy.No wind79%29.90 "Hg7 mi
3:00 PM71 °FLight rain. Fog.5 mph87%29.93 "Hg5 mi
1:56 PM79 °FMostly cloudy.5 mph69%29.91 "Hg6 mi
12:56 PM79 °FMore clouds than sun.6 mph72%29.92 "Hg6 mi
Weather by CustomWeather, © 2015

See weather overviewHow to use our weather pages